カタログに戻る

KUIPER-00560

運用中通信VLEO
NORAD 69623·PAYLOAD·🇺🇸 United States

打ち上げ Jun 17, 2026 から Guiana Space Centre

Loading…

次のパス (今後24時間)

TLE

最新Source: CelesTrak SupGP

元期: Sep 14, 2026, 21:33 UTC

1 69623C 26140AH  26257.89799769  .00003468  00000+0  93789-4 0  2572
2 69623  51.8782 324.9536 0008079 168.0504 221.2652 15.37072356    19

AllMySatでKUIPER-00560をリアルタイム追跡

Download on the App Store